This is the latest recevied weather packets stored in our database for station/object HK5VD-30. If no packets are shown the sender has not sent any weather packets the latest 10 day(s).
| Time | Temp. | Humidity | Pressure | Rain* | Wind** | Luminosity | Snow |
|---|---|---|---|---|---|---|---|
| 1788150266 | 71° F | 78% | 761.3 mmHg | 0 in | - | - | - |
| 1788148465 | 76° F | 73% | 761.3 mmHg | 0 in | - | - | - |
| 1788146665 | 75° F | 73% | 760.6 mmHg | 0 in | - | - | - |
| 1788144864 | 74° F | 73% | 760.6 mmHg | 0 in | - | - | - |
| 1788143063 | 73° F | 73% | 759.8 mmHg | 0.01 in | - | - | - |
| 1788141262 | 77° F | 65% | 759.8 mmHg | 0.01 in | - | - | - |
| 1788139461 | 77° F | 65% | 759.8 mmHg | 0.01 in | - | - | - |
| 1788137660 | 78° F | 61% | 759.8 mmHg | 0.01 in | - | - | - |
| 1788135859 | 78° F | 61% | 759.1 mmHg | 0.02 in | - | - | - |
| 1788134058 | 82° F | 54% | 759.1 mmHg | 0 in | - | - | - |
| 1788132257 | 82° F | 54% | 758.3 mmHg | 0 in | - | - | - |
| 1788130456 | 86° F | 51% | 757.6 mmHg | 0 in | - | - | - |
| 1788128655 | 86° F | 51% | 757.6 mmHg | 0 in | - | - | - |
| 1788126855 | 86° F | 51% | 757.6 mmHg | 0 in | - | - | - |
| 1788125054 | 86° F | 51% | 757.6 mmHg | 0 in | - | - | - |
| 1788123253 | 86° F | 58% | 756.8 mmHg | 0 in | - | - | - |
| 1788121452 | 86° F | 88% | 757.6 mmHg | 0 in | - | - | - |
| 1788119644 | 85° F | 88% | 756.8 mmHg | 0 in | - | - | - |
| 1788117843 | 84° F | 88% | 757.6 mmHg | 0 in | - | - | - |
| 1788116042 | 83° F | 88% | 757.6 mmHg | 0 in | - | - | - |
| 1788114241 | 82° F | 88% | 759.1 mmHg | 0 in | - | - | - |
| 1788112440 | 81° F | 88% | 759.1 mmHg | 0 in | - | - | - |
| 1788110639 | 80° F | 88% | 759.8 mmHg | 0 in | - | - | - |
| 1788108838 | 79° F | 88% | 759.8 mmHg | 0 in | - | - | - |
| 1788107037 | 78° F | 88% | 760.6 mmHg | 0 in | - | - | - |
* Rain latest hour (hover to see other rain measurements)
** Current wind speed in m/s (hover to see current wind gust speed)